User: anonymous   Login
Location: Unspecified
(0.0000°N, 0.0000°E)
Time: 12:35:58
(UTC+02:00)
Language:

NOSS 3-3 (A) - Orbit

View from above orbital plane
View from above orbital plane
View from above satellite
View from above satellite

Ground track
Ground track

The orbit data is extracted from the following two-line orbital elements,

1 28537U 05004A   17172.96139904 0.00000080  00000-0  11821-3 0    00
2 28537  63.4244 176.2590 0264000 358.1923   1.8077 13.40734980    05
Epoch (UTC): 21 June 2017 23:04:24
Eccentricity: 0.0264000
inclination: 63.4244°
perigee height: 909 km
apogee height: 1304 km
right ascension of ascending node: 176.2590°
argument of perigee: 358.1923°
revolutions per day: 13.40734980
mean anomaly at epoch: 1.8077°
orbit number at epoch: 0

The dashed part of the orbit path shows where the satellite is in the earth's shadow,  

DLR